• Join FlightAware (Why Join?)
  • Login
  • US Flag 
04:30AM EST


 

Airport Tracker/Info


-or-


 

Live Flight TrackerFlight Track Log ✈ EJA930 ✈ 28-Jun-2013 ✈ KSAN - KLAX

Flight Track Log - Related Links

Times and Time Zones

All times are in EDT time to prevent confusion due to time zone crossing. See the EJA930 flight status page for this flight to view local times or setup timezone preferences in your user account.

Time Position Orientation Groundspeed Altitude Reporting Facility
EDT Latitude Longitude Course Direction KTS MPH feet Rate Location/Type
11:37AM 32.7500 -117.2333 322° Northwest 213 245 1,700  Level Southern California TRACON
11:38AM 32.7833 -117.3000 301° West 263 303 4,700 2,940 Climbing Southern California TRACON
11:39AM 32.8333 -117.3667 312° West 279 321 7,600 2,520 Climbing Southern California TRACON
11:40AM 32.8475 -117.4000 297° West 271 312 8,500 1,560 Climbing Los Angeles Center
11:41AM 32.8969 -117.4825 306° West 296 341 10,000 720 Climbing Los Angeles Center
11:42AM 32.9839 -117.5500 327° Northwest 362 417 10,000  Level Los Angeles Center
11:43AM 33.0845 -117.5409 322° Northwest  Level FlightAware Approximate
11:43AM 33.0681 -117.6628 312° West 380 437 10,000  Level Los Angeles Center
11:44AM 33.1331 -117.7617 308° West 379 436 10,000  Level Los Angeles Center
11:45AM 33.2094 -117.8456 317° Northwest 378 435 10,000  Level Los Angeles Center
11:46AM 33.3100 -117.8825 343° North 379 436 10,000  Level Los Angeles Center
11:47AM 33.4103 -117.9189 343° North 380 437 10,000 -720 Level Los Angeles Center
11:48AM 33.5067 -117.9531 344° North 311 358 8,600 -1,440 Descending Los Angeles Center
11:49AM 33.5853 -117.9814 343° North 298 343 7,000 -780 Descending Los Angeles Center
11:50AM 33.6597 -118.0086 343° North 287 330 7,000 -60 Level Los Angeles Center
11:51AM 33.7500 -118.0500 339° North 293 337 6,900 -120 Descending Southern California TRACON
11:52AM 33.8333 -118.0833 342° North 298 343 6,800 -1,080 Descending Southern California TRACON
11:53AM 33.8917 -118.1261 329° Northwest 284 327 4,900 -1,920 Descending Los Angeles Center
11:54AM 33.9219 -118.1975 297° West 242 278 3,100 -1,260 Descending Los Angeles Center
11:55AM 33.9406 -118.2711 287° West 235 270 2,400 -1,020 Descending Los Angeles Center
11:56AM 33.9422 -118.3372 272° West 213 245 1,100 -1,080 Descending Los Angeles Center
11:57AM 33.9381 -118.3831 264° West 167 192 200 -900 Descending Los Angeles Center
11:59AM 33.9333 -118.4000 307° West  Level FlightAware Approximate
12:06PM 33.9425 -118.4081 307° West  Level Estimated